Year,Month,Day,Hour,Minute,Value (Times are PST for barometer in hPa)
2011,11,29,00,00,1030.25
2011,11,29,00,01,1030.25
2011,11,29,00,02,1030.21
2011,11,29,00,03,1030.21
2011,11,29,00,05,1030.17
2011,11,29,00,06,1030.19
2011,11,29,00,07,1030.19
2011,11,29,00,08,1030.17
2011,11,29,00,09,1030.16
2011,11,29,00,10,1030.15
2011,11,29,00,11,1030.16
2011,11,29,00,12,1030.14
2011,11,29,00,13,1030.13
2011,11,29,00,14,1030.11
2011,11,29,00,15,1030.09
2011,11,29,00,16,1030.09
2011,11,29,00,17,1030.12
2011,11,29,00,18,1030.15
2011,11,29,00,19,1030.16
2011,11,29,00,20,1030.14
2011,11,29,00,21,1030.15
2011,11,29,00,22,1030.16
2011,11,29,00,23,1030.14
2011,11,29,00,24,1030.14
2011,11,29,00,25,1030.14
2011,11,29,00,26,1030.13
2011,11,29,00,27,1030.12
2011,11,29,00,28,1030.13
2011,11,29,00,29,1030.11
2011,11,29,00,30,1030.08
2011,11,29,00,31,1030.05
2011,11,29,00,32,1030.06
2011,11,29,00,33,1030.04
2011,11,29,00,34,1030.05
2011,11,29,00,35,1030.06
2011,11,29,00,36,1030.04
2011,11,29,00,37,1030.07
2011,11,29,00,38,1030.09
2011,11,29,00,39,1030.09
2011,11,29,00,40,1030.11
2011,11,29,00,41,1030.09
2011,11,29,00,42,1030.09
2011,11,29,00,43,1030.11
2011,11,29,00,44,1030.09
2011,11,29,00,45,1030.10
2011,11,29,00,46,1030.10
2011,11,29,00,47,1030.05
2011,11,29,00,48,1030.06
2011,11,29,00,49,1030.04
2011,11,29,00,50,1030.02
2011,11,29,00,51,1030.00
2011,11,29,00,52,1029.99
2011,11,29,00,53,1029.96
2011,11,29,00,54,1029.94
2011,11,29,00,55,1029.94
2011,11,29,00,56,1029.96
2011,11,29,00,57,1030.02
2011,11,29,00,58,1030.01
2011,11,29,00,59,1029.97
2011,11,29,01,00,1029.98
2011,11,29,01,01,1029.99
2011,11,29,01,02,1029.96
2011,11,29,01,03,1029.96
2011,11,29,01,04,1030.00
2011,11,29,01,05,1029.97
2011,11,29,01,06,1029.95
2011,11,29,01,07,1029.98
2011,11,29,01,08,1029.98
2011,11,29,01,09,1029.96
2011,11,29,01,10,1029.99
2011,11,29,01,11,1029.98
2011,11,29,01,12,1029.99
2011,11,29,01,13,1029.96
2011,11,29,01,14,1029.96
2011,11,29,01,15,1029.99
2011,11,29,01,16,1029.94
2011,11,29,01,17,1029.93
2011,11,29,01,18,1029.96
2011,11,29,01,19,1029.95
2011,11,29,01,20,1029.96
2011,11,29,01,21,1029.95
2011,11,29,01,22,1029.97
2011,11,29,01,23,1029.96
2011,11,29,01,24,1029.94
2011,11,29,01,25,1029.94
2011,11,29,01,26,1029.95
2011,11,29,01,27,1029.96
2011,11,29,01,28,1029.94
2011,11,29,01,29,1029.94
2011,11,29,01,30,1029.92
2011,11,29,01,31,1029.92
2011,11,29,01,32,1029.94
2011,11,29,01,33,1029.92
2011,11,29,01,34,1029.87
2011,11,29,01,35,1029.84
2011,11,29,01,36,1029.84
2011,11,29,01,37,1029.82
2011,11,29,01,38,1029.80
2011,11,29,01,39,1029.77
2011,11,29,01,40,1029.70
2011,11,29,01,41,1029.67
2011,11,29,01,42,1029.67
2011,11,29,01,43,1029.67
2011,11,29,01,44,1029.68
2011,11,29,01,45,1029.70
2011,11,29,01,46,1029.69
2011,11,29,01,47,1029.71
2011,11,29,01,48,1029.77
2011,11,29,01,49,1029.77
2011,11,29,01,50,1029.78
2011,11,29,01,51,1029.77
2011,11,29,01,52,1029.72
2011,11,29,01,53,1029.70
2011,11,29,01,54,1029.70
2011,11,29,01,55,1029.70
2011,11,29,01,56,1029.69
2011,11,29,01,57,1029.69
2011,11,29,01,58,1029.73
2011,11,29,01,59,1029.75
2011,11,29,02,00,1029.71
2011,11,29,02,01,1029.64
2011,11,29,02,02,1029.69
2011,11,29,02,03,1029.68
2011,11,29,02,04,1029.70
2011,11,29,02,05,1029.67
2011,11,29,02,06,1029.63
2011,11,29,02,07,1029.62
2011,11,29,02,08,1029.57
2011,11,29,02,09,1029.53
2011,11,29,02,10,1029.52
2011,11,29,02,11,1029.50
2011,11,29,02,12,1029.51
2011,11,29,02,13,1029.53
2011,11,29,02,14,1029.53
2011,11,29,02,15,1029.57
2011,11,29,02,16,1029.62
2011,11,29,02,17,1029.60
2011,11,29,02,18,1029.61
2011,11,29,02,19,1029.65
2011,11,29,02,20,1029.64
2011,11,29,02,21,1029.57
2011,11,29,02,22,1029.53
2011,11,29,02,23,1029.56
2011,11,29,02,24,1029.58
2011,11,29,02,25,1029.56
2011,11,29,02,26,1029.58
2011,11,29,02,27,1029.58
2011,11,29,02,28,1029.54
2011,11,29,02,29,1029.51
2011,11,29,02,30,1029.52
2011,11,29,02,31,1029.51
2011,11,29,02,32,1029.52
2011,11,29,02,33,1029.50
2011,11,29,02,34,1029.48
2011,11,29,02,35,1029.48
2011,11,29,02,36,1029.47
2011,11,29,02,37,1029.43
2011,11,29,02,38,1029.43
2011,11,29,02,39,1029.44
2011,11,29,02,40,1029.46
2011,11,29,02,41,1029.46
2011,11,29,02,42,1029.46
2011,11,29,02,43,1029.45
2011,11,29,02,44,1029.44
2011,11,29,02,45,1029.43
2011,11,29,02,46,1029.40
2011,11,29,02,47,1029.45
2011,11,29,02,48,1029.40
2011,11,29,02,49,1029.37
2011,11,29,02,50,1029.37
2011,11,29,02,51,1029.31
2011,11,29,02,52,1029.26
2011,11,29,02,53,1029.23
2011,11,29,02,54,1029.20
2011,11,29,02,55,1029.14
2011,11,29,02,56,1029.14
2011,11,29,02,57,1029.16
2011,11,29,02,58,1029.14
2011,11,29,02,59,1029.14
2011,11,29,03,00,1029.16
2011,11,29,03,01,1029.16
2011,11,29,03,02,1029.14
2011,11,29,03,03,1029.09
2011,11,29,03,06,1029.09
2011,11,29,03,07,1029.07
2011,11,29,03,08,1029.06
2011,11,29,03,09,1029.02
2011,11,29,03,10,1029.01
2011,11,29,03,11,1028.97
2011,11,29,03,12,1028.95
2011,11,29,03,13,1028.95
2011,11,29,03,14,1028.95
2011,11,29,03,15,1028.94
2011,11,29,03,16,1028.94
2011,11,29,03,17,1028.92
2011,11,29,03,18,1028.84
2011,11,29,03,19,1028.76
2011,11,29,03,20,1028.77
2011,11,29,03,21,1028.79
2011,11,29,03,22,1028.75
2011,11,29,03,23,1028.77
2011,11,29,03,24,1028.76
2011,11,29,03,25,1028.76
2011,11,29,03,26,1028.77
2011,11,29,03,27,1028.73
2011,11,29,03,28,1028.70
2011,11,29,03,29,1028.65
2011,11,29,03,30,1028.65
2011,11,29,03,31,1028.68
2011,11,29,03,32,1028.68
2011,11,29,03,33,1028.70
2011,11,29,03,34,1028.70
2011,11,29,03,35,1028.65
2011,11,29,03,36,1028.64
2011,11,29,03,37,1028.64
2011,11,29,03,38,1028.64
2011,11,29,03,39,1028.61
2011,11,29,03,40,1028.56
2011,11,29,03,41,1028.53
2011,11,29,03,42,1028.49
2011,11,29,03,43,1028.51
2011,11,29,03,44,1028.53
2011,11,29,03,45,1028.51
2011,11,29,03,46,1028.53
2011,11,29,03,47,1028.52
2011,11,29,03,48,1028.48
2011,11,29,03,49,1028.43
2011,11,29,03,50,1028.40
2011,11,29,03,51,1028.35
2011,11,29,03,52,1028.29
2011,11,29,03,53,1028.28
2011,11,29,03,54,1028.26
2011,11,29,03,55,1028.30
2011,11,29,03,56,1028.33
2011,11,29,03,57,1028.36
2011,11,29,03,58,1028.36
2011,11,29,03,59,1028.35
2011,11,29,04,00,1028.36
2011,11,29,04,01,1028.43
2011,11,29,04,02,1028.44
2011,11,29,04,03,1028.41
2011,11,29,04,04,1028.41
2011,11,29,04,05,1028.43
2011,11,29,04,06,1028.46
2011,11,29,04,07,1028.46
2011,11,29,04,08,1028.46
2011,11,29,04,09,1028.47
2011,11,29,04,10,1028.45
2011,11,29,04,11,1028.45
2011,11,29,04,12,1028.45
2011,11,29,04,13,1028.45
2011,11,29,04,14,1028.45
2011,11,29,04,15,1028.45
2011,11,29,04,16,1028.46
2011,11,29,04,17,1028.48
2011,11,29,04,18,1028.46
2011,11,29,04,19,1028.45
2011,11,29,04,20,1028.45
2011,11,29,04,21,1028.41
2011,11,29,04,22,1028.36
2011,11,29,04,23,1028.38
2011,11,29,04,24,1028.43
2011,11,29,04,25,1028.52
2011,11,29,04,26,1028.59
2011,11,29,04,27,1028.61
2011,11,29,04,28,1028.61
2011,11,29,04,29,1028.67
2011,11,29,04,30,1028.67
2011,11,29,04,31,1028.67
2011,11,29,04,32,1028.65
2011,11,29,04,33,1028.64
2011,11,29,04,34,1028.64
2011,11,29,04,35,1028.65
2011,11,29,04,36,1028.70
2011,11,29,04,37,1028.73
2011,11,29,04,38,1028.77
2011,11,29,04,39,1028.76
2011,11,29,04,40,1028.72
2011,11,29,04,41,1028.69
2011,11,29,04,42,1028.64
2011,11,29,04,43,1028.60
2011,11,29,04,44,1028.56
2011,11,29,04,45,1028.56
2011,11,29,04,46,1028.53
2011,11,29,04,47,1028.48
2011,11,29,04,48,1028.44
2011,11,29,04,49,1028.41
2011,11,29,04,50,1028.41
2011,11,29,04,51,1028.40
2011,11,29,04,52,1028.40
2011,11,29,04,53,1028.41
2011,11,29,04,54,1028.43
2011,11,29,04,55,1028.43
2011,11,29,04,56,1028.35
2011,11,29,04,57,1028.26
2011,11,29,04,58,1028.19
2011,11,29,04,59,1028.14
2011,11,29,05,00,1028.13
2011,11,29,05,01,1028.09
2011,11,29,05,02,1028.07
2011,11,29,05,03,1028.09
2011,11,29,05,04,1028.11
2011,11,29,05,05,1028.11
2011,11,29,05,06,1028.09
2011,11,29,05,07,1028.04
2011,11,29,05,08,1027.95
2011,11,29,05,09,1027.87
2011,11,29,05,10,1027.82
2011,11,29,05,11,1027.74
2011,11,29,05,12,1027.70
2011,11,29,05,13,1027.72
2011,11,29,05,14,1027.69
2011,11,29,05,15,1027.65
2011,11,29,05,16,1027.64
2011,11,29,05,17,1027.60
2011,11,29,05,18,1027.58
2011,11,29,05,19,1027.60
2011,11,29,05,20,1027.65
2011,11,29,05,21,1027.69
2011,11,29,05,22,1027.73
2011,11,29,05,23,1027.74
2011,11,29,05,24,1027.65
2011,11,29,05,25,1027.56
2011,11,29,05,26,1027.49
2011,11,29,05,27,1027.43
2011,11,29,05,28,1027.41
2011,11,29,05,29,1027.46
2011,11,29,05,30,1027.45
2011,11,29,05,31,1027.43
2011,11,29,05,32,1027.44
2011,11,29,05,33,1027.44
2011,11,29,05,34,1027.41
2011,11,29,05,35,1027.35
2011,11,29,05,36,1027.32
2011,11,29,05,37,1027.31
2011,11,29,05,38,1027.33
2011,11,29,05,39,1027.34
2011,11,29,05,40,1027.33
2011,11,29,05,41,1027.30
2011,11,29,05,42,1027.30
2011,11,29,05,43,1027.33
2011,11,29,05,44,1027.36
2011,11,29,05,45,1027.31
2011,11,29,05,46,1027.29
2011,11,29,05,47,1027.25
2011,11,29,05,48,1027.19
2011,11,29,05,49,1027.19
2011,11,29,05,50,1027.16
2011,11,29,05,51,1027.07
2011,11,29,05,52,1027.00
2011,11,29,05,53,1027.02
2011,11,29,05,54,1026.99
2011,11,29,05,55,1026.97
2011,11,29,05,56,1026.96
2011,11,29,05,57,1026.98
2011,11,29,05,58,1027.06
2011,11,29,05,59,1027.00
2011,11,29,06,00,1026.89
2011,11,29,06,03,1026.89
2011,11,29,06,04,1026.92
2011,11,29,06,05,1026.94
2011,11,29,06,06,1026.96
2011,11,29,06,07,1026.96
2011,11,29,06,08,1026.94
2011,11,29,06,09,1026.95
2011,11,29,06,10,1026.96
2011,11,29,06,11,1026.94
2011,11,29,06,12,1027.01
2011,11,29,06,13,1027.04
2011,11,29,06,14,1027.05
2011,11,29,06,15,1027.12
2011,11,29,06,16,1027.15
2011,11,29,06,17,1027.13
2011,11,29,06,18,1027.11
2011,11,29,06,19,1027.14
2011,11,29,06,20,1027.16
2011,11,29,06,21,1027.11
2011,11,29,06,22,1027.09
2011,11,29,06,23,1027.06
2011,11,29,06,24,1027.01
2011,11,29,06,25,1027.02
2011,11,29,06,26,1027.07
2011,11,29,06,27,1027.06
2011,11,29,06,28,1027.02
2011,11,29,06,29,1027.02
2011,11,29,06,30,1027.01
2011,11,29,06,31,1026.98
2011,11,29,06,32,1026.96
2011,11,29,06,33,1026.96
2011,11,29,06,34,1027.01
2011,11,29,06,35,1027.04
2011,11,29,06,36,1026.97
2011,11,29,06,37,1026.94
2011,11,29,06,38,1026.94
2011,11,29,06,39,1026.91
2011,11,29,06,40,1026.83
2011,11,29,06,41,1026.75
2011,11,29,06,42,1026.75
2011,11,29,06,43,1026.77
2011,11,29,06,44,1026.76
2011,11,29,06,45,1026.71
2011,11,29,06,46,1026.70
2011,11,29,06,47,1026.71
2011,11,29,06,48,1026.67
2011,11,29,06,49,1026.65
2011,11,29,06,50,1026.65
2011,11,29,06,51,1026.62
2011,11,29,06,52,1026.58
2011,11,29,06,53,1026.60
2011,11,29,06,54,1026.62
2011,11,29,06,55,1026.60
2011,11,29,06,56,1026.61
2011,11,29,06,57,1026.67
2011,11,29,06,58,1026.70
2011,11,29,06,59,1026.71
2011,11,29,07,00,1026.64
2011,11,29,07,01,1026.56
2011,11,29,07,02,1026.52
2011,11,29,07,03,1026.46
2011,11,29,07,04,1026.45
2011,11,29,07,05,1026.42
2011,11,29,07,06,1026.38
2011,11,29,07,07,1026.38
2011,11,29,07,08,1026.38
2011,11,29,07,09,1026.39
2011,11,29,07,10,1026.36
2011,11,29,07,11,1026.28
2011,11,29,07,12,1026.18
2011,11,29,07,13,1026.07
2011,11,29,07,14,1026.01
2011,11,29,07,15,1025.97
2011,11,29,07,16,1025.95
2011,11,29,07,17,1026.01
2011,11,29,07,18,1026.11
2011,11,29,07,19,1026.06
2011,11,29,07,20,1026.02
2011,11,29,07,21,1026.06
2011,11,29,07,22,1026.04
2011,11,29,07,23,1026.01
2011,11,29,07,24,1025.97
2011,11,29,07,25,1026.00
2011,11,29,07,26,1026.06
2011,11,29,07,27,1026.03
2011,11,29,07,28,1025.97
2011,11,29,07,29,1025.95
2011,11,29,07,30,1026.01
2011,11,29,07,31,1026.02
2011,11,29,07,32,1025.95
2011,11,29,07,33,1025.96
2011,11,29,07,34,1025.91
2011,11,29,07,35,1025.87
2011,11,29,07,36,1025.87
2011,11,29,07,37,1025.87
2011,11,29,07,38,1025.89
2011,11,29,07,39,1025.89
2011,11,29,07,40,1025.86
2011,11,29,07,41,1025.85
2011,11,29,07,42,1025.87
2011,11,29,07,43,1025.86
2011,11,29,08,51,1024.56
2011,11,29,08,52,1024.44
2011,11,29,08,53,1024.35
2011,11,29,08,54,1024.32
2011,11,29,08,55,1024.30
2011,11,29,08,56,1024.24
2011,11,29,08,57,1024.16
2011,11,29,08,58,1024.21
2011,11,29,08,59,1024.22
2011,11,29,09,00,1024.18
2011,11,29,09,01,1024.17
2011,11,29,09,02,1024.13
2011,11,29,09,03,1024.10
2011,11,29,09,04,1024.14
2011,11,29,09,05,1024.21
2011,11,29,09,06,1024.19
2011,11,29,09,07,1024.18
2011,11,29,09,08,1024.17
2011,11,29,09,09,1024.20
2011,11,29,09,10,1024.26
2011,11,29,09,11,1024.28
2011,11,29,09,12,1024.27
2011,11,29,09,13,1024.23
2011,11,29,09,14,1024.23
2011,11,29,09,15,1024.18
2011,11,29,09,16,1024.11
2011,11,29,09,17,1024.06
2011,11,29,09,18,1024.00
2011,11,29,09,19,1023.98
2011,11,29,09,20,1023.93
2011,11,29,09,21,1023.94
2011,11,29,09,22,1023.98
2011,11,29,09,23,1023.97
2011,11,29,09,24,1024.04
2011,11,29,09,25,1024.11
2011,11,29,09,26,1024.15
2011,11,29,09,27,1024.06
2011,11,29,09,28,1023.95
2011,11,29,09,29,1023.92
2011,11,29,09,30,1023.93
2011,11,29,09,31,1023.92
2011,11,29,09,32,1023.96
2011,11,29,09,33,1023.96
2011,11,29,09,34,1023.91
2011,11,29,09,35,1023.92
2011,11,29,09,36,1023.96
2011,11,29,09,37,1023.92
2011,11,29,09,38,1023.88
2011,11,29,09,39,1023.89
2011,11,29,09,40,1023.94
2011,11,29,09,41,1023.93
2011,11,29,09,42,1023.92
2011,11,29,09,43,1023.91
2011,11,29,09,44,1023.88
2011,11,29,09,45,1023.89
2011,11,29,09,48,1023.74
2011,11,29,09,49,1023.70
2011,11,29,09,50,1023.64
2011,11,29,09,51,1023.64
2011,11,29,09,52,1023.61
2011,11,29,09,53,1023.60
2011,11,29,09,54,1023.65
2011,11,29,09,55,1023.69
2011,11,29,09,56,1023.68
2011,11,29,09,57,1023.65
2011,11,29,09,58,1023.70
2011,11,29,09,59,1023.73
2011,11,29,10,00,1023.74
2011,11,29,10,01,1023.76
2011,11,29,10,02,1023.75
2011,11,29,10,03,1023.79
2011,11,29,10,04,1023.79
2011,11,29,10,05,1023.77
2011,11,29,10,06,1023.77
2011,11,29,10,07,1023.76
2011,11,29,10,08,1023.75
2011,11,29,10,09,1023.77
2011,11,29,10,11,1023.83
2011,11,29,10,12,1023.84
2011,11,29,10,13,1023.79
2011,11,29,10,14,1023.75
2011,11,29,10,15,1023.74
2011,11,29,10,16,1023.71
2011,11,29,10,17,1023.71
2011,11,29,10,18,1023.71
2011,11,29,10,19,1023.72
2011,11,29,10,20,1023.74
2011,11,29,10,21,1023.71
2011,11,29,10,22,1023.64
2011,11,29,10,23,1023.62
2011,11,29,10,24,1023.59
2011,11,29,10,25,1023.54
2011,11,29,10,26,1023.52
2011,11,29,10,27,1023.49
2011,11,29,10,28,1023.47
2011,11,29,10,29,1023.48
2011,11,29,10,30,1023.47
2011,11,29,10,31,1023.46
2011,11,29,10,32,1023.50
2011,11,29,10,33,1023.50
2011,11,29,10,34,1023.54
2011,11,29,10,35,1023.62
2011,11,29,10,36,1023.66
2011,11,29,10,37,1023.67
2011,11,29,10,38,1023.70
2011,11,29,10,39,1023.70
2011,11,29,10,40,1023.65
2011,11,29,10,41,1023.69
2011,11,29,10,42,1023.68
2011,11,29,10,43,1023.64
2011,11,29,10,44,1023.65
2011,11,29,10,45,1023.69
2011,11,29,10,46,1023.69
2011,11,29,10,47,1023.67
2011,11,29,10,48,1023.70
2011,11,29,10,49,1023.73
2011,11,29,10,50,1023.68
2011,11,29,10,51,1023.64
2011,11,29,10,52,1023.61
2011,11,29,10,53,1023.60
2011,11,29,10,54,1023.61
2011,11,29,10,55,1023.60
2011,11,29,10,56,1023.62
2011,11,29,10,57,1023.60
2011,11,29,10,58,1023.62
2011,11,29,10,59,1023.58
2011,11,29,11,00,1023.52
2011,11,29,11,01,1023.52
2011,11,29,11,02,1023.52
2011,11,29,11,03,1023.60
2011,11,29,11,04,1023.67
2011,11,29,11,05,1023.66
2011,11,29,11,06,1023.61
2011,11,29,11,07,1023.58
2011,11,29,11,08,1023.55
2011,11,29,11,09,1023.52
2011,11,29,11,10,1023.52
2011,11,29,11,11,1023.49
2011,11,29,11,12,1023.45
2011,11,29,11,13,1023.42
2011,11,29,11,14,1023.40
2011,11,29,11,15,1023.34
2011,11,29,11,16,1023.24
2011,11,29,11,17,1023.13
2011,11,29,11,18,1023.05
2011,11,29,11,19,1023.01
2011,11,29,11,20,1022.96
2011,11,29,11,21,1022.89
2011,11,29,11,22,1022.81
2011,11,29,11,23,1022.79
2011,11,29,11,24,1022.76
2011,11,29,11,25,1022.67
2011,11,29,11,26,1022.56
2011,11,29,11,27,1022.43
2011,11,29,11,28,1022.25
2011,11,29,11,29,1022.07
2011,11,29,11,30,1022.03
2011,11,29,11,31,1022.10
2011,11,29,11,32,1022.20
2011,11,29,11,33,1022.26
2011,11,29,11,36,1022.08
2011,11,29,11,37,1022.08
2011,11,29,11,38,1022.10
2011,11,29,11,39,1022.14
2011,11,29,11,40,1022.30
2011,11,29,11,41,1022.39
2011,11,29,11,42,1022.36
2011,11,29,11,43,1022.33
2011,11,29,11,44,1022.34
2011,11,29,11,45,1022.32
2011,11,29,11,46,1022.33
2011,11,29,11,47,1022.34
2011,11,29,11,48,1022.32
2011,11,29,11,49,1022.29
2011,11,29,11,50,1022.25
2011,11,29,11,51,1022.21
2011,11,29,11,52,1022.13
2011,11,29,11,53,1022.08
2011,11,29,11,54,1022.03
2011,11,29,11,55,1022.01
2011,11,29,11,56,1021.98
2011,11,29,11,57,1021.94
2011,11,29,11,58,1021.90
2011,11,29,11,59,1021.83
2011,11,29,12,00,1021.82
2011,11,29,12,01,1021.83
2011,11,29,12,02,1021.80
2011,11,29,12,04,1021.74
2011,11,29,12,05,1021.73
2011,11,29,12,06,1021.69
2011,11,29,12,07,1021.73
2011,11,29,12,08,1021.87
2011,11,29,12,10,1021.94
2011,11,29,12,11,1021.96
2011,11,29,12,12,1022.01
2011,11,29,12,13,1022.02
2011,11,29,12,14,1021.99
2011,11,29,12,15,1022.00
2011,11,29,12,16,1021.99
2011,11,29,12,17,1022.00
2011,11,29,12,18,1021.95
2011,11,29,12,19,1021.90
2011,11,29,12,20,1021.84
2011,11,29,12,21,1021.78
2011,11,29,12,22,1021.73
2011,11,29,12,23,1021.69
2011,11,29,12,24,1021.72
2011,11,29,12,25,1021.70
2011,11,29,12,26,1021.58
2011,11,29,12,27,1021.46
2011,11,29,12,28,1021.39
2011,11,29,12,29,1021.33
2011,11,29,12,30,1021.27
2011,11,29,12,31,1021.27
2011,11,29,12,32,1021.23
2011,11,29,12,33,1021.17
2011,11,29,12,34,1021.20
2011,11,29,12,35,1021.26
2011,11,29,12,36,1021.30
2011,11,29,12,37,1021.30
2011,11,29,12,38,1021.29
2011,11,29,12,39,1021.30
2011,11,29,12,40,1021.32
2011,11,29,12,41,1021.30
2011,11,29,12,42,1021.25
2011,11,29,12,44,1021.06
2011,11,29,12,45,1021.02
2011,11,29,12,46,1020.92
2011,11,29,12,47,1020.80
2011,11,29,12,48,1020.68
2011,11,29,12,49,1020.61
2011,11,29,12,50,1020.60
2011,11,29,12,51,1020.62
2011,11,29,12,52,1020.65
2011,11,29,12,53,1020.66
2011,11,29,12,54,1020.65
2011,11,29,12,55,1020.69
2011,11,29,12,56,1020.66
2011,11,29,12,57,1020.65
2011,11,29,12,58,1020.66
2011,11,29,12,59,1020.65
2011,11,29,13,00,1020.71
2011,11,29,13,01,1020.73
2011,11,29,13,02,1020.73
2011,11,29,13,03,1020.67
2011,11,29,13,04,1020.59
2011,11,29,13,05,1020.58
2011,11,29,13,06,1020.57
2011,11,29,13,07,1020.58
2011,11,29,13,08,1020.62
2011,11,29,13,09,1020.68
2011,11,29,13,10,1020.64
2011,11,29,13,11,1020.61
2011,11,29,13,12,1020.60
2011,11,29,13,13,1020.62
2011,11,29,13,14,1020.61
2011,11,29,13,15,1020.63
2011,11,29,13,16,1020.66
2011,11,29,13,17,1020.65
2011,11,29,13,18,1020.72
2011,11,29,13,19,1020.79
2011,11,29,13,20,1020.79
2011,11,29,13,21,1020.76
2011,11,29,13,22,1020.74
2011,11,29,13,23,1020.71
2011,11,29,13,24,1020.73
2011,11,29,13,25,1020.71
2011,11,29,13,26,1020.68
2011,11,29,13,27,1020.66
2011,11,29,13,28,1020.66
2011,11,29,13,29,1020.63
2011,11,29,13,30,1020.60
2011,11,29,13,31,1020.58
2011,11,29,13,32,1020.55
2011,11,29,13,33,1020.53
2011,11,29,13,34,1020.47
2011,11,29,13,35,1020.49
2011,11,29,13,36,1020.47
2011,11,29,13,37,1020.47
2011,11,29,13,38,1020.52
2011,11,29,13,39,1020.62
2011,11,29,13,40,1020.63
2011,11,29,13,41,1020.56
2011,11,29,13,42,1020.53
2011,11,29,13,43,1020.49
2011,11,29,13,44,1020.49
2011,11,29,13,45,1020.49
2011,11,29,13,46,1020.47
2011,11,29,13,47,1020.47
2011,11,29,13,48,1020.47
2011,11,29,13,49,1020.45
2011,11,29,13,50,1020.45
2011,11,29,13,51,1020.47
2011,11,29,13,52,1020.49
2011,11,29,13,53,1020.49
2011,11,29,13,54,1020.49
2011,11,29,13,55,1020.49
2011,11,29,13,56,1020.49
2011,11,29,13,57,1020.49
2011,11,29,13,58,1020.45
2011,11,29,13,59,1020.40
2011,11,29,14,00,1020.39
2011,11,29,14,01,1020.34
2011,11,29,14,02,1020.29
2011,11,29,14,03,1020.17
2011,11,29,14,04,1020.04
2011,11,29,14,05,1019.97
2011,11,29,14,06,1019.96
2011,11,29,14,07,1019.98
2011,11,29,14,08,1019.93
2011,11,29,14,09,1019.91
2011,11,29,14,10,1019.95
2011,11,29,14,11,1019.96
2011,11,29,14,12,1019.98
2011,11,29,14,13,1019.94
2011,11,29,14,14,1019.88
2011,11,29,14,15,1019.87
2011,11,29,14,16,1019.85
2011,11,29,14,17,1019.85
2011,11,29,14,18,1019.88
2011,11,29,14,19,1019.86
2011,11,29,14,20,1019.85
2011,11,29,14,21,1019.95
2011,11,29,14,22,1019.96
2011,11,29,14,23,1019.97
2011,11,29,14,24,1019.93
2011,11,29,14,25,1019.90
2011,11,29,14,26,1019.84
2011,11,29,14,27,1019.76
2011,11,29,14,28,1019.72
2011,11,29,14,29,1019.66
2011,11,29,14,32,1019.43
2011,11,29,14,33,1019.42
2011,11,29,14,34,1019.42
2011,11,29,14,35,1019.42
2011,11,29,14,36,1019.47
2011,11,29,14,37,1019.51
2011,11,29,14,38,1019.51
2011,11,29,14,39,1019.48
2011,11,29,14,40,1019.44
2011,11,29,14,41,1019.38
2011,11,29,14,42,1019.27
2011,11,29,14,43,1019.22
2011,11,29,14,44,1019.17
2011,11,29,14,45,1019.13
2011,11,29,14,46,1019.18
2011,11,29,14,47,1019.22
2011,11,29,14,48,1019.20
2011,11,29,14,49,1019.17
2011,11,29,14,50,1019.11
2011,11,29,14,51,1019.02
2011,11,29,14,52,1018.93
2011,11,29,14,53,1018.87
2011,11,29,14,54,1018.83
2011,11,29,14,55,1018.82
2011,11,29,14,56,1018.84
2011,11,29,14,57,1018.88
2011,11,29,14,58,1018.83
2011,11,29,14,59,1018.83
2011,11,29,15,00,1018.85
2011,11,29,15,01,1018.87
2011,11,29,15,02,1018.93
2011,11,29,15,03,1019.00
2011,11,29,15,04,1019.13
2011,11,29,15,05,1019.15
2011,11,29,15,06,1019.18
2011,11,29,15,07,1019.24
2011,11,29,15,08,1019.25
2011,11,29,15,09,1019.24
2011,11,29,15,10,1019.22
2011,11,29,15,11,1019.21
2011,11,29,15,12,1019.14
2011,11,29,15,13,1019.11
2011,11,29,15,14,1019.13
2011,11,29,15,15,1019.13
2011,11,29,15,16,1019.13
2011,11,29,15,17,1019.12
2011,11,29,15,18,1019.11
2011,11,29,15,19,1019.13
2011,11,29,15,20,1019.13
2011,11,29,15,21,1019.13
2011,11,29,15,22,1019.15
2011,11,29,15,23,1019.17
2011,11,29,15,24,1019.15
2011,11,29,15,25,1019.13
2011,11,29,15,26,1019.13
2011,11,29,15,27,1019.13
2011,11,29,15,28,1019.13
2011,11,29,15,29,1019.15
2011,11,29,15,30,1019.15
2011,11,29,15,32,1019.13
2011,11,29,15,33,1019.13
2011,11,29,15,34,1019.13
2011,11,29,15,35,1019.13
2011,11,29,15,36,1019.15
2011,11,29,15,37,1019.17
2011,11,29,15,38,1019.18
2011,11,29,15,39,1019.17
2011,11,29,15,40,1019.13
2011,11,29,15,41,1019.13
2011,11,29,15,42,1019.13
2011,11,29,15,43,1019.12
2011,11,29,15,44,1019.09
2011,11,29,15,45,1019.05
2011,11,29,15,46,1019.05
2011,11,29,15,47,1019.02
2011,11,29,15,48,1019.04
2011,11,29,15,49,1019.13
2011,11,29,15,50,1019.13
2011,11,29,15,51,1019.13
2011,11,29,15,52,1019.13
2011,11,29,15,53,1019.10
2011,11,29,15,54,1019.15
2011,11,29,15,55,1019.27
2011,11,29,15,56,1019.30
2011,11,29,15,57,1019.29
2011,11,29,15,58,1019.26
2011,11,29,15,59,1019.21
2011,11,29,16,00,1019.17
2011,11,29,16,01,1019.20
2011,11,29,16,02,1019.25
2011,11,29,16,03,1019.28
2011,11,29,16,04,1019.29
2011,11,29,16,05,1019.26
2011,11,29,16,07,1019.30
2011,11,29,16,08,1019.32
2011,11,29,16,09,1019.32
2011,11,29,16,10,1019.34
2011,11,29,16,11,1019.34
2011,11,29,16,12,1019.27
2011,11,29,16,13,1019.32
2011,11,29,16,14,1019.30
2011,11,29,16,15,1019.24
2011,11,29,16,16,1019.21
2011,11,29,16,17,1019.14
2011,11,29,16,18,1019.10
2011,11,29,16,19,1019.07
2011,11,29,16,20,1019.03
2011,11,29,16,21,1019.03
2011,11,29,16,22,1019.05
2011,11,29,16,23,1019.04
2011,11,29,16,24,1019.01
2011,11,29,16,25,1019.00
2011,11,29,16,26,1018.98
2011,11,29,16,27,1018.96
2011,11,29,16,28,1018.90
2011,11,29,16,29,1018.87
2011,11,29,16,30,1018.83
2011,11,29,16,31,1018.83
2011,11,29,16,32,1018.82
2011,11,29,16,33,1018.75
2011,11,29,16,34,1018.65
2011,11,29,16,35,1018.64
2011,11,29,16,36,1018.69
2011,11,29,16,37,1018.71
2011,11,29,16,38,1018.71
2011,11,29,16,39,1018.69
2011,11,29,16,40,1018.68
2011,11,29,16,41,1018.65
2011,11,29,16,42,1018.60
2011,11,29,16,43,1018.59
2011,11,29,16,44,1018.61
2011,11,29,16,45,1018.62
2011,11,29,16,46,1018.63
2011,11,29,16,47,1018.64
2011,11,29,16,48,1018.68
2011,11,29,16,49,1018.65
2011,11,29,16,50,1018.64
2011,11,29,16,51,1018.65
2011,11,29,16,52,1018.60
2011,11,29,16,53,1018.56
2011,11,29,16,54,1018.57
2011,11,29,16,55,1018.59
2011,11,29,16,56,1018.55
2011,11,29,16,57,1018.50
2011,11,29,16,58,1018.49
2011,11,29,16,59,1018.43
2011,11,29,17,00,1018.38
2011,11,29,17,01,1018.37
2011,11,29,17,02,1018.42
2011,11,29,17,03,1018.40
2011,11,29,17,04,1018.32
2011,11,29,17,05,1018.36
2011,11,29,17,06,1018.39
2011,11,29,17,07,1018.39
2011,11,29,17,08,1018.42
2011,11,29,17,09,1018.42
2011,11,29,17,10,1018.42
2011,11,29,17,11,1018.44
2011,11,29,17,12,1018.46
2011,11,29,17,13,1018.46
2011,11,29,17,14,1018.43
2011,11,29,17,15,1018.40
2011,11,29,17,16,1018.47
2011,11,29,17,17,1018.47
2011,11,29,17,18,1018.42
2011,11,29,17,19,1018.41
2011,11,29,17,20,1018.39